Saranac Lake, NY

10:06 AM EDT on May 23, 2017 (GMT -0400)
Adirondack Regional

Weather History for KSLK - August, 2013

Change the Weather History Date:

Wednesday, August 14, 2013

  Actual Average Record
Temperature  
Mean Temperature 51 °F 62 °F  
Max Temperature 60 °F 74 °F 90 °F (2002)
Min Temperature 42 °F 49 °F 37 °F (1961)
Degree Days  
Heating Degree Days 11 4  
Month to date heating degree days 56  
Since 1 June heating degree days 334  
Since 1 July heating degree days 150  
Cooling Degree Days 0 1  
Month to date cooling degree days 9 14  
Year to date cooling degree days 155 89  
Since 1 June cooling degree days 145 86  
Growing Degree Days 4 (Base 50)    
Moisture  
Dew Point 50 °F    
Average Humidity 83    
Maximum Humidity 96    
Minimum Humidity 69    
Precipitation  
Precipitation 0.20 in 0.13 in 1.37 in (2011)
Month to date precipitation 2.55 1.80  
Year to date precipitation 28.27 22.19  
Sea Level Pressure  
Sea Level Pressure 29.82 in    
Wind  
Wind Speed 6 mph (West)    
Max Wind Speed 13 mph    
Max Gust Speed 20 mph    
Visibility 8 miles    
Events Rain    
T = Trace of Precipitation, MM = Missing Value Source: NWS Daily Summary

Daily Weather History Graph

Daily Weather History Graph

Search for Another Location

Airport or City:

Trip Planner

Search our weather history database for the weather conditions in past years. The results will help you decide how hot, cold, wet, or windy it might be!

Date:

Astronomy

Aug. 14, 2013 Rise Set
Actual Time 5:58 AM EDT 8:03 PM EDT
Civil Twilight 5:27 AM EDT 8:34 PM EDT
Nautical Twilight 4:48 AM EDT 9:13 PM EDT
Astronomical Twilight 4:05 AM EDT 9:56 PM EDT
Moon 2:15 PM EDT (8/14) No Moon Set
Length of Visible Light 15h 07m
Length of Day
14h 04m
First Quarter, 52% of the Moon is Illuminated
Aug 14
First Quarter
Aug 20
Full
Aug 28
Last Quarter
Sep 5
New
Sep 12
First Quarter

Hourly Weather History & Observations

Time (EDT) Temp. Dew Point Humidity Pressure Visibility Wind Dir Wind Speed Gust Speed Precip Events Conditions
12:51 AM 53.1 °F 50.0 °F 89% 29.76 in 10.0 mi WSW 6.9 mph - N/A   Partly Cloudy
1:51 AM 51.1 °F 48.9 °F 92% 29.75 in 10.0 mi SW 4.6 mph - N/A   Partly Cloudy
2:51 AM 50.0 °F 48.0 °F 93% 29.75 in 10.0 mi West 5.8 mph - N/A   Scattered Clouds
3:14 AM 51.8 °F 48.2 °F 88% 29.74 in 10.0 mi WSW 8.1 mph - N/A   Mostly Cloudy
3:40 AM 51.8 °F 46.4 °F 82% 29.74 in 10.0 mi WSW 5.8 mph - N/A   Mostly Cloudy
3:51 AM 51.1 °F 48.0 °F 89% 29.74 in 10.0 mi WSW 9.2 mph - N/A   Overcast
4:21 AM 51.8 °F 48.2 °F 88% 29.74 in 10.0 mi SW 4.6 mph - N/A   Overcast
4:51 AM 51.1 °F 48.0 °F 89% 29.74 in 10.0 mi WSW 4.6 mph - N/A   Overcast
5:01 AM 51.8 °F 48.2 °F 88% 29.74 in 10.0 mi SW 5.8 mph - N/A   Overcast
5:28 AM 51.8 °F 48.2 °F 88% 29.74 in 10.0 mi Variable 5.8 mph - N/A   Overcast
5:51 AM 51.1 °F 48.0 °F 89% 29.74 in 10.0 mi WSW 6.9 mph - N/A   Overcast
6:51 AM 51.1 °F 48.0 °F 89% 29.75 in 9.0 mi WSW 9.2 mph - N/A   Overcast
7:51 AM 52.0 °F 48.9 °F 89% 29.75 in 6.0 mi WSW 9.2 mph - N/A   Overcast
8:09 AM 51.8 °F 50.0 °F 94% 29.75 in 9.0 mi WSW 5.8 mph - N/A   Overcast
8:39 AM 51.8 °F 50.0 °F 94% 29.77 in 1.8 mi Variable 5.8 mph - N/A   Overcast
8:51 AM 51.1 °F 50.0 °F 96% 29.77 in 1.5 mi WSW 5.8 mph - N/A   Overcast
9:05 AM 51.8 °F 51.8 °F 100% 29.77 in 2.0 mi WSW 3.5 mph - 0.00 in Rain Light Rain
9:51 AM 53.1 °F 51.1 °F 93% 29.78 in 2.0 mi West 5.8 mph - 0.03 in Rain Rain
10:10 AM 53.6 °F 51.8 °F 94% 29.78 in 5.0 mi West 5.8 mph - 0.02 in Rain Light Rain
10:32 AM 53.6 °F 51.8 °F 94% 29.79 in 10.0 mi Variable 6.9 mph - 0.02 in   Overcast
10:51 AM 53.1 °F 51.1 °F 93% 29.80 in 5.0 mi West 9.2 mph - 0.02 in Rain Light Rain
10:58 AM 53.6 °F 51.8 °F 94% 29.80 in 4.0 mi West 6.9 mph - 0.00 in Rain Light Rain
11:39 AM 53.6 °F 53.6 °F 100% 29.81 in 6.0 mi Variable 6.9 mph - 0.02 in Rain Light Rain
11:51 AM 55.0 °F 53.1 °F 93% 29.81 in 10.0 mi West 5.8 mph - 0.02 in   Overcast
12:26 PM 55.4 °F 53.6 °F 94% 29.82 in 10.0 mi Variable 5.8 mph - 0.01 in   Overcast
12:34 PM 55.4 °F 51.8 °F 88% 29.82 in 10.0 mi Variable 5.8 mph - 0.01 in   Overcast
12:51 PM 57.9 °F 52.0 °F 81% 29.83 in 10.0 mi West 10.4 mph 17.3 mph 0.01 in   Overcast
1:07 PM 55.4 °F 51.8 °F 88% 29.83 in 3.0 mi Variable 6.9 mph - 0.02 in Rain Rain
1:12 PM 55.4 °F 51.8 °F 88% 29.84 in 1.8 mi WNW 4.6 mph - 0.04 in Rain Heavy Rain
1:20 PM 55.4 °F 51.8 °F 88% 29.84 in 3.0 mi WNW 5.8 mph - 0.05 in Rain Light Rain
1:39 PM 57.2 °F 53.6 °F 88% 29.84 in 10.0 mi Variable 5.8 mph - 0.05 in   Mostly Cloudy
1:51 PM 55.9 °F 54.0 °F 93% 29.85 in 3.0 mi Variable 5.8 mph - 0.07 in Rain Rain
1:58 PM 53.6 °F 51.8 °F 94% 29.85 in 2.5 mi North 6.9 mph 19.6 mph 0.03 in Rain Rain
2:06 PM 53.6 °F 51.8 °F 94% 29.85 in 3.0 mi Variable 4.6 mph - 0.04 in Rain Rain
2:51 PM 59.0 °F 53.1 °F 81% 29.86 in 10.0 mi WNW 9.2 mph - 0.04 in   Mostly Cloudy
3:51 PM 59.0 °F 51.1 °F 75% 29.88 in 10.0 mi WNW 10.4 mph 16.1 mph N/A   Mostly Cloudy
4:51 PM 59.0 °F 50.0 °F 72% 29.89 in 10.0 mi NW 5.8 mph - N/A   Overcast
5:14 PM 55.4 °F 51.8 °F 88% 29.90 in 5.0 mi NNW 5.8 mph 16.1 mph 0.01 in Rain Light Rain
5:41 PM 59.0 °F 53.6 °F 82% 29.90 in 10.0 mi Variable 6.9 mph - 0.01 in   Mostly Cloudy
5:51 PM 60.1 °F 50.0 °F 69% 29.91 in 10.0 mi West 5.8 mph - 0.01 in   Partly Cloudy
6:51 PM 57.9 °F 48.0 °F 70% 29.94 in 10.0 mi Variable 6.9 mph - N/A   Scattered Clouds
7:51 PM 55.9 °F 48.0 °F 75% 29.96 in 10.0 mi Variable 4.6 mph - N/A   Clear
8:51 PM 54.0 °F 46.0 °F 75% 29.98 in 10.0 mi Variable 3.5 mph - N/A   Clear
9:51 PM 51.1 °F 46.0 °F 83% 30.00 in 10.0 mi SW 3.5 mph - N/A   Clear
10:51 PM 48.0 °F 46.0 °F 93% 30.01 in 10.0 mi Calm Calm - N/A   Clear
11:51 PM 46.0 °F 45.0 °F 96% 30.01 in 10.0 mi Calm Calm - N/A   Clear